{"data":{"norad_id":55639,"epoch":"2026-09-20T16:59:56.256864Z","epoch_age_seconds":84981,"freshness":"FRESH","line1":"1 55639U 23021M   26263.70829001  .00000221  00000+0  26277-4 0  9994","line2":"2 55639  70.0002  52.7316 0002727 267.4652  92.6195 14.98333014198009","mean_motion":14.98333014,"eccentricity":0.0002727,"inclination_deg":70.0002,"raan_deg":52.7316,"arg_perigee_deg":267.4652,"mean_anomaly_deg":92.6195,"bstar":2.6277e-5,"rev_number":19800,"period_min":96.106805799849,"perigee_km":570.15125535402,"apogee_km":573.94188547332,"semimajor_km":6950.1835704137,"source":"CELESTRAK","updated_at":"2026-09-21T09:00:33.282442Z"}}